This demonstration page uses our WeatherBlox Daily Observations layout. Learn more.

Left ArrowRight Arrow

39.92423, -83.80882

Hourly Observations for June 19, 2021

Temp ( °F °C ) Dew Point ( °F °C ) Humidity (%) Winds ( mph kmh ) Pressure ( in mb ) Visibility ( mi km ) Precip ( " mm )
12:56 am 00:56 Partly Cloudy 68 20 68 20 100 100 WSW 10 17 29.91 1013 10 16 N/A
1:32 am 01:32 Mostly Cloudy with Thunderstorms 70 21 N/A N/A W 10 17 29.91 1013 10 16 N/A
1:47 am 01:47 Mostly Cloudy with Light Rain 70 21 N/A N/A WSW 14 22 29.90 1012 10 16 0.00 0.00
1:56 am 01:56 Mostly Cloudy with Light Rain 70 21 N/A N/A WSW 14 22 29.92 1013 10 16 0.00 0.00
2:04 am 02:04 Partly Cloudy with Nearby Thunderstorms 70 21 N/A N/A WSW 17 28 29.90 1012 10 16 0.00 0.00
2:19 am 02:19 Mostly Clear with Light Rain 70 21 N/A N/A SW 16 26 29.89 1012 10 16 0.00 0.00
2:56 am 02:56 Clear with Light Rain 69 20.6 69 20.6 100 100 SW 20 31 29.89 1012 10 16 0.00 0.00
3:56 am 03:56 Clear 66 19 N/A N/A WSW 10 17 29.91 1013 10 16 0.00 0.00
4:56 am 04:56 Partly Cloudy with Light Rain 68 20 68 20 100 100 WSW 18 30 29.90 1012 10 16 0.00 0.00
5:43 am 05:43 Mostly Cloudy with Light Rain 66 19 66 19 100 100 W 20 31 29.90 1012 10 16 0.01 0.25
5:56 am 05:56 Cloudy 66 19 N/A N/A WSW 17 28 29.91 1013 10 16 0.01 0.25
6:41 am 06:41 Cloudy with Light Rain 66 19 N/A N/A W 16 26 29.92 1013 10 16 0.01 0.25
6:56 am 06:56 Cloudy with Light Rain 66 19 N/A N/A W 10 17 29.91 1013 10 16 0.01 0.25
7:22 am 07:22 Mostly Cloudy with Light Rain 66 19 N/A N/A WSW 20 31 29.87 1011 10 16 0.01 0.25
7:56 am 07:56 Mostly Cloudy with Light Rain 66 18.9 66 18.9 100 100 W 15 24 29.96 1015 10 16 0.01 0.25
8:22 am 08:22 Cloudy with Light Rain 66 19 N/A N/A W 17 28 29.96 1014 10 16 0.03 0.76
8:45 am 08:45 Cloudy with Light Rain 64 18 N/A N/A WSW 18 30 29.96 1015 10 16 0.08 2.03
8:53 am 08:53 Cloudy with Nearby Thunderstorms 64 18 N/A N/A WSW 18 30 29.96 1015 10 16 0.10 2.54
8:56 am 08:56 Cloudy with Thunderstorms 64 18 N/A N/A WSW 17 28 29.97 1015 10 16 0.11 2.79
9:12 am 09:12 Cloudy with Nearby Thunderstorms 64 18 N/A N/A SW 18 30 29.96 1015 10 16 0.04 1.02
9:33 am 09:33 Cloudy with Rain 66 19 N/A N/A SSW 15 24 29.95 1014 10 16 0.10 2.54
9:56 am 09:56 Cloudy with Light Rain 64 18 N/A N/A SSE 21 33 29.84 1010 9 14 0.16 4.06
10:56 am 10:56 Mostly Sunny 69 20.6 69 20.6 100 100 S 6 9 29.84 1011 10 16 0.00 0.00
11:56 am 11:56 Sunny 74 23.3 69 20.6 85 85 SSW 10 17 29.85 1011 10 16 N/A
12:56 pm 12:56 Sunny 77 25 70 21.1 79 79 SW 9 15 29.85 1011 10 16 N/A
1:56 pm 13:56 Cloudy 75 23.9 68 20 79 79 SW 17 28 29.87 1012 10 16 N/A
2:56 pm 14:56 Mostly Sunny 77 25 67 19.4 71 71 WSW 23 37 29.85 1011 10 16 N/A
3:56 pm 15:56 Sunny 77 25 68 20 74 74 WSW 17 28 29.83 1010 10 16 N/A
4:56 pm 16:56 Sunny 79 26.1 68 20 69 69 WSW 15 24 29.81 1010 10 16 N/A
5:56 pm 17:56 Sunny 80 26.7 68 20 67 67 SW 17 28 29.80 1009 10 16 N/A
6:56 pm 18:56 Mostly Cloudy 78 25.6 69 20.6 74 74 WSW 10 17 29.81 1010 10 16 N/A
7:56 pm 19:56 Cloudy 77 25 70 21.1 79 79 WSW 12 19 29.83 1010 10 16 N/A
8:56 pm 20:56 Cloudy 75 23.9 72 22.2 90 90 WSW 6 9 29.83 1010 10 16 N/A
9:56 pm 21:56 Mostly Cloudy 72 22.2 72 22.2 100 100 SW 3 6 29.83 1010 10 16 N/A
10:56 pm 22:56 Cloudy 73 22.8 73 22.8 100 100 S 3 6 29.84 1010 10 16 N/A
11:56 pm 23:56 Partly Cloudy 73 22.8 73 22.8 100 100 SSW 5 7 29.83 1010 10 16 N/A

Powered by AerisWeather